Simultaneous Nadir Overpasses (SNOs) Predictions

Prediction of SNOs between GOES-14 and AQUA Satellite Orbit:

Table of predicted SNOs for the next 14.0 days since TLE Epoch: 6/14/2024
Index Date Time (GOES-14) GOES-14 Lat,Lon AQUA Lat,Lon Distance(km) Time Diff (sec)
1 06/16/2024 21:11:28 0.08,-108.54 0.84,-105.03 398.87 80
2 06/17/2024 09:28:54 -0.11,-108.57 0.19,-109.90 151.57 80
3 06/19/2024 09:14:59 -0.10,-108.56 -0.68,-105.84 309.10 80
4 06/19/2024 21:32:34 0.13,-108.52 -0.37,-110.75 253.97 80
5 06/21/2024 21:18:37 0.13,-108.50 0.49,-106.68 206.73 80
6 06/22/2024 09:36:04 -0.16,-108.55 0.51,-111.55 342.89 80
7 06/24/2024 09:22:07 -0.15,-108.53 -0.40,-107.50 117.68 80
8 06/24/2024 21:39:42 0.18,-108.47 -0.68,-112.39 446.26 80
9 06/26/2024 21:25:44 0.17,-108.46 0.22,-108.33 15.40 80
10 06/28/2024 21:09:04 0.16,-108.44 1.04,-104.25 477.08 80
